www.pogodaiklimat.ru

Погода и климат >> Архив погоды >> Россия >> Хабаровский край >> Байдуков


ПОГОДА в Байдукове

  • Прогноз погоды в Байдукове
  • Монитор погоды в Байдукове

АРХИВ ПОГОДЫ в Байдукове

Время (UTC), дата Ветер
(напр.,м/с)
 
Видим.   Явления Облачность Т
(С)
Тd
(С)
f
(%)
Тe
(С)
Тes
(С)
Комфортность P
(гПа)
Po
(гПа)
Тmin
(С)
Tmax
(С)
R
(мм)
R24
(мм)
S
(см)
21 8.09 З 12-15
{16}
10 км слаб. дождь 10/0 600 м
[As op]
+14.2 +13.2 94 +11 +11 976.9 975.9 +12.2 49
03 9.09 СЗ 16-22
{26}
10 км {морось} 10/10 600 м
[Sc]
+11.3 +9.6 89 +6 +6 991.0 990.0
09 9.09 СЗ 8-11
{14}
10 км слаб. дождь 10/10 600 м
[Frnb Ns]
+10.1 +8.1 87 +6 +6 1001.3 1000.3 +14.1 2
15 9.09 СЗ 6
{11}
10 км 8/4 600 м
[Cu hum Cs]
+10.8 +8.0 83 +8 +8 1005.9 1005.3
21 9.09 СЗ 7 20 км 10/10 600 м
[Sc]
+11.2 +9.3 88 +8 +8 1006.9 1006.0 +9.7 0.3
03 10.09 СЗ 7 20 км {ливн. осадки} 8/3 600 м
[Cu hum Cc]
+14.2 +7.5 64 +12 +13 1009.9 1009.3
09 10.09 В 3 50 км 1/1 600 м
[Sc]
+10.7 +7.2 79 +9 +9 1012.6 1012.0 +15.8 0.1
15 10.09 ЮВ 6 20 км ясно +11.3 +6.6 73 +8 +8 1012.6 1012.0
21 10.09 Ю 4 50 км ясно +10.8 +7.2 78 +8 +9 1013.3 1012.3 +9.0
03 11.09 ЮЗ 4 50 км 1/1
[Cu hum]
+17.5 +9.6 60 +17 +23 1013.9 1013.3
09 11.09 Ю 3 50 км 1/1 600 м
[Sc]
+12.6 +8.9 78 +11 +11 1013.9 1013.3 +18.1
15 11.09 З 3 20 км ясно +9.6 +8.4 92 +7 +7 1015.3 1014.7
21 11.09 З 2 50 км 1/0
[Ci fib]
+9.4 +8.4 93 +8 +8 1015.3 1014.9 +8.3 0.3
03 12.09 В 2 50 км 1 балл +16.1 +10.2 68 +16 +24 1016.6 1016.0
09 12.09 В 1 50 км 1/0
[Ac lent]
+15.1 +10.1 72 +16 +16 1014.5 1014.1 +17.2 0.1
15 12.09 Ю 5 20 км ясно +14.7 +12.6 87 +13 +13 1015.3 1014.7
21 12.09 Ю 6 50 км 3/0
[Ci fib]
+15.2 +12.9 86 +14 +14 1013.5 1013.1 +11.2
03 13.09 ЮВ 9-12
{13}
50 км 10/0
[Cs]
+18.0 +13.5 75 +17 +18 1011.5 1010.9
09 13.09 В 13-17
{18}
20 км 8/0
[As trans Cs]
+16.7 +13.4 81 +15 +15 1007.3 1007.0 +18.8
15 13.09 ЮВ 13-17
{20}
20 км 10/0
[Ac lent]
+16.4 +13.2 81 +14 +14 1003.0 1002.7
21 13.09 ЮВ 13-18
{20}
20 км 10/6 600 м
[St Ac trans]
+16.1 +13.5 85 +14 +14 999.1 998.8 +16.1
03 14.09 Ю 8-11
{17}
4000 м дождь 10/10 600 м
[Sc]
+15.5 +14.1 91 +14 +14 995.3 994.9
09 14.09 З 7-11
{14}
50 км {дождь} 3/1 600 м
[Sc Ac lent]
+11.4 +5.6 67 +8 +8 1000.2 999.9 +16.5 5
15 14.09 З 9 20 км ясно +9.2 +2.7 64 +5 +5 1004.6 1004.0
21 14.09 З 5 50 км ясно +8.2 -0.6 54 +5 +5 1007.0 1006.6
03 15.09 З 4 50 км ясно +17.0 +1.0 34 +17 +22 1008.6 1008.0
09 15.09 Ю 4 50 км 3/3 600 м
[Sc]
+15.4 +8.8 65 +14 +14 1007.7 1007.1 +18.3
15 15.09 Ю 10-13
{14}
20 км 3/0
[Ci fib]
+15.7 +11.9 78 +14 +14 1006.2 1005.8

 

Местоположение метеостанции Байдуков (Хабаровский край, Россия): широта 53.30 долгота 141.40 высота над уровнем моря 5 м.

В архиве по умолчанию представлена погода в Байдукове за последнюю неделю. Архивные данные за месяц целиком и за предыдущие месяцы, начиная с января 2011 года, Вы можете получить, выбрав интересующий диапазон дат из раскрывающегося списка и нажав кнопку "Ввод!".


*Определитесь, кто Вы:
робот инопланетянин человек

Внимание! Время в таблицах - всемирное. Для получения местного времени необходимо прибавить поправку, которая равна 10 ч.

Смотрите также архив погоды в соседних городах и на ближайших метеорологических станциях:

Погода в Николаевск-на-Амуре (Хабаровский край, Россия) (50 км)
Погода в Джаоре (Хабаровский край, Россия) (71 км)
Погода в Москальво (Сахалинская область, Россия) (79 км)
Погода в Оха (Сахалинская область, Россия) (102 км)
Погода в Литке (Хабаровский край, Россия) (102 км)
Погода в Одопту (Сахалинская область, Россия) (120 км)
Погода в Погибях (Сахалинская область, Россия) (121 км)
Погода в Богородском (Хабаровский край, Россия) (122 км)
Погода в Ныврово (Сахалинская область, Россия) (139 км)
Погода в Вале (Сахалинская область, Россия) (152 км)

Пояснения к столбцам:

Ветер - указаны скорость ветра в м/с - средняя за 10 мин, порывы в срок и между сроками (в фигурных скобках) и направление, откуда дует ветер: С - северный, СВ - северо-восточный, В - восточный, ЮВ - юго-восточный, Ю - южный, ЮЗ - юго-западный, З - западный, СЗ - северо-западный.
Видимость - горизонтальная дальность видимости в метрах или километрах. При видимости от 1 до 10 км при отсутствии осадков обычно наблюдается дымка, при ухудшении видимости до 1 км и менее - туман. В сухую погоду видимость может ухудшаться дымом, пылью или мглою.
Явления - указаны атмосферные явления, наблюдавшиеся в срок или в последний час перед сроком; фигурными скобками обозначены явления, наблюдавшиеся между сроками (за 1-3 часа до срока); квадратными скобками обозначены град или гололедные отложения с указанием их диаметра в мм.
Облачность - указаны через наклонную черту общая и нижняя облачность в баллах и высота нижней границы облаков в метрах; квадратными скобками обозначены формы облаков: Ci - перистые, Cs - перисто-слоистые, Cc - перисто-кучевые, Ac - высококучевые, As - высокослоистые, Sc - слоисто-кучевые, Ns - слоисто-дождевые, Cu - кучевые, Cb - кучево-дождевые. Подробнее классификацию облаков см. в Атласе облаков (PDF).
T - Температура воздуха - температура, измеренная на высоте 2 м над землей.
Td - Температура точки росы - температура, при понижении до которой содержащийся в воздухе водяной пар достигнет насыщения.
f - Относительная влажность воздуха - влажноcть воздуха, измеренная на высоте 2 м над землей.
Te - Эффективная температура - температура, которую ощущает одетый по сезону человек в тени. Характеристика душности погоды. При расчете учитывается влияние влажности воздуха и скорости ветра на теплоощущения человека.
Tes - Эффективная температура на солнце - температура, которую ощущает человек, с поправкой на солнечный нагрев. Характеристика знойности погоды. Зависит от высоты солнца над горизонтом, облачности и скорости ветра. Ночью, в пасмурную погоду, а также при ветре 12 м/с и более поправка равна нулю.
P - Атмосферное давление - приведенное к уровню моря атмосферное давление.
Po - Атмосферное давление - измеренное на уровне метеостанции атмосферное давление.
Tmin - Минимальная температура - минимум температуры воздуха на высоте 2 м над землей.
Tmax - Максимальная температура - максимум температуры воздуха на высоте 2 м над землей.
R - Количество осадков - Количество выпавших осадков за период времени, мм. При наведении курсора мыши на число - период времени, за который выпало указанное количество осадков.
R24 - Количество осадков - Количество выпавших осадков за 24 часа, мм.
S - Снежный покров - Высота снежного покрова, см. При наведении курсора мыши на число - состояние снежного покрова и степень покрытия местности в баллах.